Time,TemperatureF,DewpointF,PressureIn,WindDirection,WindDirectionDegrees,WindSpeedMPH,WindSpeedGustMPH,Humidity,HourlyPrecipIn,Conditions,Clouds,dailyrainin,SoftwareType,DateUTC
2013-08-09 00:15:00,76.6,76.0,30.08,SSW,207,0.0,0.0,97,0.00,,,0.00,weatherlink.com 1.10,2013-08-09 04:15:00,
2013-08-09 00:30:00,76.0,75.0,30.08,SSW,207,0.0,0.0,97,0.00,,,0.00,weatherlink.com 1.10,2013-08-09 04:30:00,
2013-08-09 00:45:00,76.3,76.0,30.08,SSW,207,0.0,1.0,98,0.00,,,0.00,weatherlink.com 1.10,2013-08-09 04:45:00,
2013-08-09 01:00:00,76.5,76.0,30.08,SSW,207,0.0,0.0,98,0.00,,,0.00,weatherlink.com 1.10,2013-08-09 05:00:00,
2013-08-09 01:15:00,76.4,76.0,30.07,SSW,206,0.0,1.0,98,0.00,,,0.00,weatherlink.com 1.10,2013-08-09 05:15:00,
2013-08-09 01:30:00,76.2,76.0,30.07,SSW,207,0.0,0.0,98,0.00,,,0.00,weatherlink.com 1.10,2013-08-09 05:30:00,
2013-08-09 01:45:00,76.1,76.0,30.07,SSW,207,0.0,0.0,98,0.00,,,0.00,weatherlink.com 1.10,2013-08-09 05:45:00,
2013-08-09 02:00:00,76.1,76.0,30.07,SSW,207,0.0,0.0,98,0.00,,,0.00,weatherlink.com 1.10,2013-08-09 06:00:00,
2013-08-09 02:15:00,76.3,76.0,30.07,SSW,207,0.0,0.0,98,0.00,,,0.00,weatherlink.com 1.10,2013-08-09 06:15:00,
2013-08-09 02:30:00,76.4,76.0,30.06,SSW,207,0.0,0.0,98,0.00,,,0.00,weatherlink.com 1.10,2013-08-09 06:30:00,
2013-08-09 02:45:00,76.4,76.0,30.06,SW,224,0.0,1.0,98,0.00,,,0.00,weatherlink.com 1.10,2013-08-09 06:45:00,
2013-08-09 03:00:00,76.4,76.0,30.05,SW,224,0.0,0.0,99,0.00,,,0.00,weatherlink.com 1.10,2013-08-09 07:00:00,
2013-08-09 03:15:00,76.2,76.0,30.05,SW,224,0.0,0.0,98,0.00,,,0.00,weatherlink.com 1.10,2013-08-09 07:15:00,
2013-08-09 03:30:00,76.3,76.0,30.05,SW,224,0.0,1.0,99,0.00,,,0.00,weatherlink.com 1.10,2013-08-09 07:30:00,
2013-08-09 03:45:00,76.4,76.0,30.04,SW,226,0.0,1.0,99,0.00,,,0.00,weatherlink.com 1.10,2013-08-09 07:45:00,
2013-08-09 04:00:00,76.2,76.0,30.04,SW,226,0.0,0.0,99,0.00,,,0.00,weatherlink.com 1.10,2013-08-09 08:00:00,
2013-08-09 04:15:00,76.3,76.0,30.04,SW,226,0.0,1.0,99,0.00,,,0.00,weatherlink.com 1.10,2013-08-09 08:15:00,
2013-08-09 04:30:00,75.9,76.0,30.05,SW,226,0.0,0.0,99,0.00,,,0.00,weatherlink.com 1.10,2013-08-09 08:30:00,
2013-08-09 04:45:00,75.5,75.0,30.05,SW,226,0.0,0.0,99,0.00,,,0.00,weatherlink.com 1.10,2013-08-09 08:45:00,
2013-08-09 05:00:00,75.4,75.0,30.06,SW,226,0.0,0.0,99,0.00,,,0.00,weatherlink.com 1.10,2013-08-09 09:00:00,
2013-08-09 05:15:00,75.1,75.0,30.06,SW,226,0.0,0.0,99,0.00,,,0.00,weatherlink.com 1.10,2013-08-09 09:15:00,
2013-08-09 05:30:00,74.9,75.0,30.06,SW,226,0.0,0.0,99,0.00,,,0.00,weatherlink.com 1.10,2013-08-09 09:30:00,
2013-08-09 05:45:00,74.9,75.0,30.07,SW,226,0.0,0.0,99,0.00,,,0.00,weatherlink.com 1.10,2013-08-09 09:45:00,
2013-08-09 06:00:00,74.8,75.0,30.07,SW,226,0.0,0.0,99,0.00,,,0.00,weatherlink.com 1.10,2013-08-09 10:00:00,
2013-08-09 06:15:00,74.6,74.0,30.08,SW,226,0.0,0.0,99,0.00,,,0.00,weatherlink.com 1.10,2013-08-09 10:15:00,
2013-08-09 06:30:00,74.4,74.0,30.09,SW,226,0.0,0.0,99,0.00,,,0.00,weatherlink.com 1.10,2013-08-09 10:30:00,
2013-08-09 06:45:00,74.4,74.0,30.09,SW,226,0.0,0.0,99,0.00,,,0.00,weatherlink.com 1.10,2013-08-09 10:45:00,
2013-08-09 07:00:00,74.3,74.0,30.09,SW,226,0.0,0.0,99,0.00,,,0.00,weatherlink.com 1.10,2013-08-09 11:00:00,
2013-08-09 07:15:00,74.5,74.0,30.09,SW,226,0.0,0.0,99,0.01,,,0.01,weatherlink.com 1.10,2013-08-09 11:15:00,
2013-08-09 07:30:00,74.9,75.0,30.10,SW,226,0.0,0.0,99,0.01,,,0.01,weatherlink.com 1.10,2013-08-09 11:30:00,
2013-08-09 07:45:00,76.1,76.0,30.10,SW,226,0.0,0.0,99,0.01,,,0.01,weatherlink.com 1.10,2013-08-09 11:45:00,
2013-08-09 08:01:00,77.4,77.0,30.11,SW,226,0.0,1.0,99,0.01,,,0.01,weatherlink.com 1.10,2013-08-09 12:01:00,
2013-08-09 08:16:00,78.3,78.0,30.11,SW,226,0.0,1.0,99,0.00,,,0.01,weatherlink.com 1.10,2013-08-09 12:16:00,
2013-08-09 08:31:00,79.0,78.0,30.11,ESE,119,0.0,1.0,98,0.00,,,0.01,weatherlink.com 1.10,2013-08-09 12:31:00,
2013-08-09 08:46:00,79.5,79.0,30.11,ESE,116,0.0,1.0,98,0.00,,,0.01,weatherlink.com 1.10,2013-08-09 12:46:00,
2013-08-09 09:01:00,80.7,80.0,30.11,SSW,212,0.0,1.0,97,0.00,,,0.01,weatherlink.com 1.10,2013-08-09 13:01:00,
2013-08-09 09:16:00,82.3,80.0,30.11,SW,221,0.0,2.0,91,0.00,,,0.01,weatherlink.com 1.10,2013-08-09 13:16:00,
2013-08-09 09:31:00,84.5,80.0,30.11,SSW,205,0.0,2.0,85,0.00,,,0.01,weatherlink.com 1.10,2013-08-09 13:31:00,
2013-08-09 09:46:00,85.8,79.0,30.11,SW,220,1.0,3.0,80,0.00,,,0.01,weatherlink.com 1.10,2013-08-09 13:46:00,
2013-08-09 10:01:00,86.0,78.0,30.11,South,170,0.0,3.0,78,0.00,,,0.01,weatherlink.com 1.10,2013-08-09 14:01:00,
2013-08-09 10:16:00,87.5,79.0,30.12,West,276,1.0,3.0,75,0.00,,,0.01,weatherlink.com 1.10,2013-08-09 14:16:00,
2013-08-09 10:31:00,88.9,78.0,30.12,ENE,75,1.0,2.0,69,0.00,,,0.01,weatherlink.com 1.10,2013-08-09 14:31:00,
2013-08-09 10:46:00,89.0,78.0,30.12,NW,314,1.0,3.0,70,0.00,,,0.01,weatherlink.com 1.10,2013-08-09 14:46:00,
2013-08-09 11:01:00,88.2,75.0,30.12,WSW,239,2.0,4.0,66,0.00,,,0.01,weatherlink.com 1.10,2013-08-09 15:01:00,
2013-08-09 11:16:00,89.9,77.0,30.12,SW,229,1.0,4.0,66,0.00,,,0.01,weatherlink.com 1.10,2013-08-09 15:16:00,
2013-08-09 11:31:00,89.5,77.0,30.12,WSW,242,0.0,2.0,66,0.00,,,0.01,weatherlink.com 1.10,2013-08-09 15:31:00,
2013-08-09 11:46:00,88.8,78.0,30.12,SE,146,1.0,1.0,70,0.00,,,0.01,weatherlink.com 1.10,2013-08-09 15:46:00,
2013-08-09 12:01:00,88.9,77.0,30.12,South,186,2.0,3.0,68,0.00,,,0.01,weatherlink.com 1.10,2013-08-09 16:01:00,
2013-08-09 12:16:00,86.3,77.0,30.12,SW,224,2.0,5.0,73,0.00,,,0.01,weatherlink.com 1.10,2013-08-09 16:16:00,
2013-08-09 12:31:00,84.8,77.0,30.12,SSW,200,1.0,3.0,78,0.00,,,0.01,weatherlink.com 1.10,2013-08-09 16:31:00,
2013-08-09 12:46:00,86.8,78.0,30.12,ENE,77,4.0,5.0,75,0.00,,,0.01,weatherlink.com 1.10,2013-08-09 16:46:00,
2013-08-09 13:01:00,87.6,78.0,30.12,WSW,250,2.0,6.0,72,0.00,,,0.01,weatherlink.com 1.10,2013-08-09 17:01:00,
2013-08-09 13:16:00,88.1,78.0,30.12,SSE,164,1.0,11.0,71,0.00,,,0.01,weatherlink.com 1.10,2013-08-09 17:16:00,
2013-08-09 13:31:00,89.9,77.0,30.11,WSW,239,2.0,5.0,66,0.00,,,0.01,weatherlink.com 1.10,2013-08-09 17:31:00,
2013-08-09 13:46:00,89.3,77.0,30.11,SW,221,2.0,7.0,68,0.00,,,0.01,weatherlink.com 1.10,2013-08-09 17:46:00,
2013-08-09 14:01:00,89.4,78.0,30.10,WSW,252,1.0,5.0,68,0.00,,,0.01,weatherlink.com 1.10,2013-08-09 18:01:00,
2013-08-09 14:16:00,89.9,78.0,30.09,WSW,245,2.0,7.0,68,0.00,,,0.01,weatherlink.com 1.10,2013-08-09 18:16:00,
2013-08-09 14:31:00,89.4,78.0,30.09,SSW,197,1.0,8.0,68,0.00,,,0.01,weatherlink.com 1.10,2013-08-09 18:31:00,
2013-08-09 14:46:00,89.6,77.0,30.09,East,91,4.0,10.0,66,0.00,,,0.01,weatherlink.com 1.10,2013-08-09 18:46:00,
2013-08-09 15:01:00,89.2,77.0,30.09,SW,219,3.0,5.0,67,0.00,,,0.01,weatherlink.com 1.10,2013-08-09 19:01:00,
2013-08-09 15:16:00,89.3,77.0,30.08,North,5,1.0,6.0,67,0.00,,,0.01,weatherlink.com 1.10,2013-08-09 19:16:00,
2013-08-09 15:31:00,89.5,77.0,30.08,SSE,153,1.0,8.0,66,0.00,,,0.01,weatherlink.com 1.10,2013-08-09 19:31:00,
2013-08-09 15:46:00,88.8,77.0,30.08,WSW,240,2.0,10.0,68,0.00,,,0.01,weatherlink.com 1.10,2013-08-09 19:46:00,
2013-08-09 16:01:00,89.0,77.0,30.07,WSW,239,3.0,5.0,67,0.00,,,0.01,weatherlink.com 1.10,2013-08-09 20:01:00,
2013-08-09 16:16:00,88.6,77.0,30.07,WSW,248,0.0,6.0,68,0.00,,,0.01,weatherlink.com 1.10,2013-08-09 20:16:00,
2013-08-09 16:31:00,88.0,77.0,30.07,SW,231,3.0,10.0,69,0.00,,,0.01,weatherlink.com 1.10,2013-08-09 20:31:00,
2013-08-09 16:46:00,88.3,76.0,30.06,South,172,1.0,6.0,68,0.00,,,0.01,weatherlink.com 1.10,2013-08-09 20:46:00,
2013-08-09 17:01:00,87.5,76.0,30.07,SSW,193,1.0,5.0,68,0.00,,,0.01,weatherlink.com 1.10,2013-08-09 21:01:00,
2013-08-09 17:16:00,87.3,76.0,30.07,SSE,158,4.0,6.0,69,0.00,,,0.01,weatherlink.com 1.10,2013-08-09 21:16:00,
2013-08-09 17:31:00,87.2,74.0,30.06,SE,125,2.0,6.0,65,0.00,,,0.01,weatherlink.com 1.10,2013-08-09 21:31:00,
2013-08-09 17:46:00,87.3,75.0,30.06,SSW,208,1.0,6.0,67,0.00,,,0.01,weatherlink.com 1.10,2013-08-09 21:46:00,
2013-08-09 18:01:00,86.7,74.0,30.06,SSW,197,2.0,7.0,66,0.00,,,0.01,weatherlink.com 1.10,2013-08-09 22:01:00,
2013-08-09 18:16:00,85.7,75.0,30.06,South,176,3.0,7.0,70,0.00,,,0.01,weatherlink.com 1.10,2013-08-09 22:16:00,
2013-08-09 18:31:00,84.8,75.0,30.06,SW,227,1.0,8.0,72,0.00,,,0.01,weatherlink.com 1.10,2013-08-09 22:31:00,
2013-08-09 18:46:00,84.3,76.0,30.06,SW,217,0.0,7.0,75,0.00,,,0.01,weatherlink.com 1.10,2013-08-09 22:46:00,
2013-08-09 19:01:00,83.5,75.0,30.06,SSE,153,1.0,5.0,75,0.00,,,0.01,weatherlink.com 1.10,2013-08-09 23:01:00,
2013-08-09 19:16:00,82.9,75.0,30.07,WSW,238,1.0,2.0,77,0.00,,,0.01,weatherlink.com 1.10,2013-08-09 23:16:00,
2013-08-09 19:32:00,82.4,75.0,30.07,ESE,108,0.0,3.0,79,0.00,,,0.01,weatherlink.com 1.10,2013-08-09 23:32:00,
2013-08-09 20:02:00,81.2,76.0,30.08,SSW,211,3.0,4.0,83,0.00,,,0.01,weatherlink.com 1.10,2013-08-10 00:02:00,
2013-08-09 20:17:00,80.8,76.0,30.08,SW,224,3.0,4.0,85,0.00,,,0.01,weatherlink.com 1.10,2013-08-10 00:17:00,
2013-08-09 20:32:00,80.4,76.0,30.09,SW,229,0.0,4.0,87,0.00,,,0.01,weatherlink.com 1.10,2013-08-10 00:32:00,
2013-08-09 20:47:00,80.3,77.0,30.09,East,83,0.0,4.0,88,0.00,,,0.01,weatherlink.com 1.10,2013-08-10 00:47:00,
2013-08-09 21:02:00,80.1,77.0,30.09,SSW,195,1.0,4.0,89,0.00,,,0.01,weatherlink.com 1.10,2013-08-10 01:02:00,
2013-08-09 21:17:00,79.9,77.0,30.09,SSW,210,0.0,2.0,90,0.00,,,0.01,weatherlink.com 1.10,2013-08-10 01:17:00,
2013-08-09 21:32:00,79.7,77.0,30.10,SW,233,0.0,5.0,91,0.00,,,0.01,weatherlink.com 1.10,2013-08-10 01:32:00,
2013-08-09 21:47:00,79.5,77.0,30.10,SSW,210,1.0,4.0,91,0.00,,,0.01,weatherlink.com 1.10,2013-08-10 01:47:00,
2013-08-09 22:02:00,79.3,77.0,30.11,NW,315,0.0,1.0,92,0.00,,,0.01,weatherlink.com 1.10,2013-08-10 02:02:00,
2013-08-09 22:17:00,79.1,77.0,30.11,WSW,255,0.0,2.0,93,0.00,,,0.01,weatherlink.com 1.10,2013-08-10 02:17:00,
2013-08-09 22:32:00,79.0,77.0,30.10,NE,48,0.0,1.0,93,0.00,,,0.01,weatherlink.com 1.10,2013-08-10 02:32:00,
2013-08-09 22:47:00,78.6,77.0,30.11,NE,49,0.0,1.0,93,0.00,,,0.01,weatherlink.com 1.10,2013-08-10 02:47:00,
2013-08-09 23:02:00,78.2,76.0,30.11,NE,49,0.0,0.0,94,0.00,,,0.01,weatherlink.com 1.10,2013-08-10 03:02:00,
2013-08-09 23:17:00,77.6,76.0,30.12,NE,49,0.0,0.0,94,0.00,,,0.01,weatherlink.com 1.10,2013-08-10 03:17:00,
2013-08-09 23:32:00,77.2,76.0,30.12,NE,49,0.0,0.0,95,0.00,,,0.01,weatherlink.com 1.10,2013-08-10 03:32:00,
2013-08-09 23:48:00,76.6,75.0,30.11,NE,49,0.0,0.0,95,0.00,,,0.01,weatherlink.com 1.10,2013-08-10 03:48:00,